Погода в Громово

Россия / Санкт-Петербург и Ленинградская область     60°41′40″N   30°11′12″E
темп.,
°C
ветер,
м/с
пор.,
м/с
влажн.,
%
обл.,
%
осадки,
мм/ч
давл.,
гПа
погр.,
м
27 июля, вт
вт2700:00+18зсз22675 0.0 102041
03:00+17зюз22680 0.0 102041
06:00+18з11670 0.0 102021
09:00+25зюз12413 0.0 1019446
12:00+30юв11305 0.0 10182211
15:00+29вюв433161 0.0 10171511
18:00+26ююв374089 0.0 1016287
21:00+23юв3844100 0.0 1015173
28 июля, ср
ср2800:00+20ююв265793 0.0 101596
03:00+17ююв2271100 0.0 101445
06:00+18юв2466100 0.0 101289
09:00+23вюв2452100 0.0 1011312
12:00+26ююв2241100 0.0 1010804
15:00+25св2249100 0.3 10081285
18:00+17юв2596100 2.1 1008127
21:00+19вюв1190100 2.1 100621
29 июля, чт
чт2900:00+16юв2298100 1.8 100562
03:00+16зюз279999 2.3 1004185
06:00+16з299799 0.0 1003326
09:00+21зюз477821 0.0 1002760
12:00+25зюз6849100 0.0 10011785
15:00+24зюз6105073 0.0 10001802
18:00+23зюз612513 0.0 9991435
21:00+20зюз6136669 0.0 999791
30 июля, пт
пт3000:00+19зюз6136510 0.0 999935
03:00+17зюз4128288 0.0 999824
06:00+17юз51184100 0.0 999818
09:00+20зюз6106326 0.0 9991237
12:00+23зюз71045100 0.0 9992024
15:00+23зюз7103951 0.0 9982542
18:00+21юз51244100 0.0 9992021
21:00+17юз51164100 0.1 9981083
31 июля, сб
сб3100:00+14ююз31187100 0.2 997424
03:00+14ю4128899 0.2 995568
06:00+15ююз51185100 0.0 994708
09:00+14ююз51091100 0.8 993793
12:00+17юз5982100 0.6 993864
15:00+21зсз475647 1.2 9941540
18:00+21зюз475290 0.1 9961303
21:00+17зюз38700 0.1 998367